Theta_e
363 363 363 362 361 360 359 360 359 359 357 354 352 351 351 350 349 347 347 346 345 344 345 345 345 344 343 342 341 341 340 341 341 341 342 342 342 341 340 340 340 339
365 364 363 363 362 360 361 360 359 359 358 356 354 352 351 350 349 347 346 346 346 344 345 345 345 344 342 342 341 341 341 341 341 340 341 342 341 341 340 340 339 340
366 365 364 363 361 360 360 360 359 360 358 357 355 353 351 351 350 348 346 345 345 345 345 345 345 344 343 342 342 342 342 342 341 340 340 341 341 340 340 339 339 339
367 366 365 364 361 360 360 360 360 360 358 356 355 353 351 351 350 348 346 345 345 345 345 345 345 344 344 344 343 342 342 341 342 340 341 341 341 340 339 339 339 338
368 367 366 365 363 360 361 362 361 360 358 357 355 353 352 351 350 349 347 346 345 345 345 345 345 344 344 344 343 343 342 341 341 341 341 341 340 340 339 338 339 339
369 369 367 366 365 362 362 362 361 360 358 357 356 354 352 352 351 349 348 346 345 344 343 344 345 344 344 344 344 343 342 340 340 340 340 340 340 339 338 338 338 339
369 370 369 367 366 363 363 363 362 361 359 357 357 355 354 352 350 348 347 347 346 344 342 343 344 344 343 343 344 343 341 340 339 339 340 340 340 339 339 338 338 339
369 370 370 368 367 365 364 364 363 362 360 358 358 357 354 352 350 347 346 346 346 344 342 342 344 344 342 342 343 343 341 340 340 340 340 340 339 339 339 338 339 339
369 370 370 369 367 366 365 364 363 362 361 359 359 357 354 352 350 347 345 345 346 345 342 341 343 344 341 341 342 342 341 340 340 340 340 340 339 339 339 339 339 339
370 371 371 369 367 366 364 363 362 362 362 361 359 357 354 351 349 347 345 345 345 344 343 342 343 344 342 341 341 341 341 340 340 340 339 340 339 339 339 339 339 339
371 371 370 368 366 365 364 362 360 361 362 360 358 356 354 350 348 346 346 346 345 344 343 342 343 343 342 342 341 341 342 342 341 340 340 340 340 340 340 340 340 340
371 370 369 368 366 364 363 360 359 359 360 360 357 355 353 350 347 346 346 346 346 344 344 343 343 343 342 341 341 340 342 342 341 340 340 341 340 341 341 340 340 340
371 370 369 367 365 364 362 360 358 358 359 359 357 355 352 349 346 345 345 346 346 345 344 344 343 342 342 341 340 340 341 342 340 340 340 341 341 341 341 340 339 339
372 370 368 366 364 363 362 360 359 357 358 359 357 354 351 348 345 344 344 345 346 345 344 344 343 342 342 342 342 341 341 341 340 340 341 341 341 341 340 339 338 337
371 369 368 366 363 364 363 361 359 358 358 358 356 354 349 345 343 343 345 345 345 344 344 344 342 341 341 341 342 342 341 340 340 341 341 341 341 341 339 338 338 336
369 368 367 365 364 364 364 362 360 359 359 358 356 353 348 342 340 342 344 345 344 343 344 344 343 341 340 338 338 340 341 340 339 340 341 341 341 341 340 338 337 336
368 367 366 365 364 364 363 363 361 360 360 358 356 351 346 341 339 341 344 343 342 343 344 345 343 340 339 336 335 336 338 340 340 340 341 341 341 341 340 339 338 337
367 366 365 364 364 363 362 362 361 360 360 358 355 351 346 343 342 342 343 342 343 344 344 345 342 337 334 334 334 334 335 337 338 338 338 339 340 339 339 339 338 338
367 366 364 363 363 362 362 362 361 360 359 358 355 351 347 345 345 344 343 342 344 345 344 344 342 334 329 331 334 335 333 332 334 335 335 337 338 338 338 339 338 338
365 364 363 362 361 360 361 362 361 360 359 357 355 352 349 348 346 345 344 344 345 346 344 344 343 336 332 333 336 336 332 329 330 333 334 336 337 337 338 338 338 338
363 363 361 360 359 358 360 361 361 360 359 358 356 353 351 349 347 347 347 346 346 346 345 345 344 339 337 338 337 334 330 327 329 333 335 336 337 337 338 339 339 340
362 361 360 359 358 358 358 360 360 360 359 357 356 354 351 350 350 348 348 347 347 346 344 343 343 341 339 338 336 334 332 330 331 334 336 337 338 338 339 340 341 340
361 359 359 358 358 357 357 357 359 360 358 358 357 354 351 351 349 346 347 347 345 343 343 342 342 342 339 337 337 336 335 333 332 336 338 339 339 339 339 340 340 339
360 358 359 358 357 357 356 356 358 358 358 357 356 354 352 350 347 345 346 343 337 338 343 344 342 340 337 336 338 339 337 334 334 338 340 339 340 340 340 341 340 339
358 357 358 357 357 356 355 356 357 357 357 356 354 352 350 348 346 345 342 335 332 337 341 341 339 337 336 338 340 339 337 336 337 339 340 340 342 342 340 340 340 339
357 357 357 356 356 356 355 356 356 356 356 355 352 351 349 346 345 342 338 334 335 337 336 337 338 337 339 340 339 337 337 336 337 339 340 340 341 339 338 339 339 339
Wind_Speed
22 21 20 20 19 17 16 16 15 15 15 14 13 13 13 13 12 13 13 12 12 11 11 11 10 10 9 8 8 8 7 7 8 8 8 8 7 6 6 6 6 5
23 22 21 20 19 18 18 17 17 17 16 15 13 12 13 13 13 13 13 13 12 11 11 11 11 11 10 9 9 9 9 8 8 8 8 8 7 7 6 6 6 6
24 24 23 21 20 20 19 19 18 17 17 15 15 14 13 14 14 14 14 14 13 13 13 13 13 12 11 10 10 10 10 9 9 9 8 8 7 7 7 6 6 7
26 25 24 22 22 21 20 20 20 19 17 16 16 15 15 15 15 16 16 15 15 14 14 14 13 13 12 11 11 10 10 9 9 9 8 8 8 7 7 6 6 6
28 26 25 24 23 22 21 21 21 20 19 18 17 17 17 17 17 17 17 17 16 16 15 15 14 13 13 12 12 11 10 10 10 10 9 9 8 8 7 7 7 7
28 26 26 25 24 23 23 23 22 21 21 20 19 19 19 19 19 18 18 18 18 17 16 16 16 15 14 13 13 11 10 10 10 11 10 9 9 8 7 7 7 8
27 27 26 25 25 25 25 24 23 23 22 21 21 20 20 21 20 19 19 19 18 18 18 18 18 17 15 14 13 12 11 11 11 11 11 10 9 9 8 8 8 8
28 27 27 26 26 27 26 25 25 24 23 22 22 23 23 23 24 23 23 22 20 19 20 18 17 18 16 15 14 13 12 12 12 11 11 11 10 10 9 9 9 9
28 28 28 28 28 27 27 27 26 25 25 24 24 23 24 26 27 27 26 24 22 20 20 18 17 18 18 16 15 14 14 13 12 12 12 12 12 11 11 10 10 10
28 28 29 30 29 28 28 27 26 25 26 26 24 24 25 26 26 24 24 24 22 20 20 20 19 19 19 17 16 15 15 14 13 13 13 12 12 12 11 11 11 11
29 30 30 31 30 29 29 28 26 25 26 27 26 25 25 26 25 24 23 23 22 21 21 21 20 20 19 18 18 16 15 15 14 14 14 13 13 13 12 12 12 13
31 31 31 31 31 29 29 29 28 27 27 28 28 27 25 25 26 25 24 23 22 22 22 22 21 21 21 20 18 17 16 15 15 15 15 14 14 14 13 14 14 14
32 32 31 30 30 29 28 28 29 28 27 27 28 27 25 25 25 25 24 24 24 23 23 23 22 21 22 21 19 18 17 16 15 15 15 15 15 15 14 15 15 15
30 29 28 29 29 28 28 28 29 29 28 26 26 27 26 25 25 25 24 24 24 23 22 23 22 21 22 22 20 19 18 17 16 16 15 15 15 15 15 15 15 15
27 25 25 26 26 26 27 28 29 29 28 26 25 26 26 25 24 24 24 24 24 23 21 21 21 22 23 23 22 20 19 17 16 16 16 15 15 15 15 15 15 15
25 24 23 23 23 24 26 27 28 28 28 26 25 25 25 24 24 24 24 24 23 22 21 21 20 20 23 25 24 21 19 18 17 16 16 16 16 15 15 15 15 15
24 23 22 22 23 24 25 26 25 25 25 24 24 24 24 24 25 24 23 23 23 23 22 21 20 20 22 25 24 23 20 18 16 15 15 15 16 15 15 14 15 15
23 22 21 21 21 23 25 25 24 22 22 22 22 23 23 23 24 24 23 22 22 23 23 22 22 24 24 23 24 24 23 21 17 15 15 16 15 15 15 15 14 14
21 21 20 19 19 21 23 25 25 24 24 22 21 22 23 23 24 24 24 23 22 23 23 21 21 24 24 22 22 22 23 23 21 18 17 18 17 15 15 15 14 14
20 19 18 18 18 19 22 23 24 25 25 23 21 21 22 23 24 24 24 23 21 21 20 18 18 21 21 20 20 19 19 21 21 20 19 19 18 17 16 15 15 15
20 18 17 18 18 19 20 21 22 23 24 23 22 22 22 22 23 24 24 22 20 20 18 16 16 18 17 14 15 16 16 18 21 21 20 19 19 18 17 16 15 15
18 18 19 20 19 18 18 19 20 20 21 22 22 22 22 22 23 23 22 21 20 19 17 15 15 16 15 13 14 15 15 17 20 20 20 19 19 18 16 16 16 16
19 19 20 19 18 17 17 17 18 19 19 19 19 20 20 21 22 21 20 23 22 18 16 16 15 15 14 12 13 15 15 17 18 18 19 19 18 17 16 15 16 16
19 19 19 18 17 17 17 17 17 19 19 18 17 19 19 19 21 21 20 25 26 19 16 15 14 13 13 12 14 14 13 14 16 16 17 17 16 15 14 14 15 15
18 17 17 18 18 17 17 16 17 18 18 17 17 20 19 17 19 20 19 22 24 20 17 15 13 13 13 13 14 12 9 10 12 15 18 17 13 13 14 14 14 14
16 16 17 17 17 17 16 15 16 17 18 17 17 20 21 19 19 19 18 19 21 20 19 18 15 13 13 13 12 9 7 8 11 16 18 15 12 14 15 14 13 12
Wind_Direction
200 201 202 205 208 209 208 207 207 206 207 207 206 206 206 203 199 193 190 190 192 197 198 197 196 196 199 202 204 211 214 216 221 219 215 217 217 218 220 221 224 231
199 201 202 203 205 207 208 209 209 208 207 208 206 205 203 199 196 193 190 190 192 196 197 195 195 196 201 205 204 210 216 217 223 222 215 217 219 221 225 225 227 231
199 200 201 202 204 206 207 209 209 207 206 204 204 205 201 194 192 192 190 191 193 196 196 194 195 196 201 207 205 207 214 218 225 226 218 218 222 225 228 228 234 235
200 201 200 201 205 206 206 207 206 205 203 200 200 200 195 190 189 189 190 191 194 196 195 194 196 197 199 203 203 206 213 218 224 227 223 222 224 229 233 232 236 243
200 200 199 200 202 204 204 204 204 203 202 198 196 193 190 188 188 189 190 192 194 195 194 193 194 196 197 197 200 204 210 216 219 221 224 225 226 227 231 232 235 241
199 198 198 199 198 199 201 203 203 202 201 198 193 190 190 188 188 190 191 193 195 195 194 191 190 192 194 193 196 201 208 215 217 216 219 224 228 228 228 229 232 238
196 196 196 196 195 197 199 200 201 200 200 196 191 190 189 189 189 191 192 194 197 197 195 192 188 188 190 191 195 200 206 214 219 216 215 220 226 228 229 231 233 239
194 194 194 194 194 196 197 198 199 198 197 194 191 189 189 189 190 190 191 193 194 195 195 194 189 187 188 189 193 199 203 210 217 216 215 221 226 228 230 234 237 241
193 193 193 193 193 194 197 199 198 195 193 192 191 189 189 192 193 190 189 189 190 191 192 193 191 189 190 191 192 198 203 207 213 215 217 222 227 231 232 233 240 244
192 192 193 194 194 195 198 200 198 195 192 190 190 190 191 192 193 190 186 185 188 189 190 192 192 189 192 194 193 197 203 209 214 217 221 227 231 235 236 237 242 247
192 193 194 194 194 196 198 200 201 198 194 190 190 194 192 188 187 187 186 185 187 189 190 193 192 189 192 196 195 198 204 209 215 220 226 231 235 239 241 243 246 249
193 195 195 194 194 196 199 201 203 201 196 192 192 194 191 186 185 185 185 185 187 190 191 192 190 189 195 198 197 199 205 211 216 223 229 233 237 241 243 246 248 249
195 195 193 193 195 197 199 202 204 204 199 194 192 193 191 187 185 184 184 185 187 190 192 192 188 188 196 200 199 201 206 213 219 225 231 235 239 242 244 247 248 249
193 193 193 196 198 197 198 202 204 204 201 196 192 192 192 189 186 184 184 185 187 190 193 192 188 187 195 199 198 201 208 214 222 229 233 238 242 244 246 248 248 249
190 191 194 197 199 198 197 200 202 201 199 196 194 192 192 191 188 185 184 185 186 189 192 193 189 188 196 200 197 199 207 215 223 231 236 241 245 247 248 248 250 252
187 192 195 196 199 201 200 200 201 198 195 194 192 191 190 191 189 187 185 185 184 185 189 193 192 192 201 206 202 199 206 216 223 231 238 244 247 249 250 250 252 255
186 190 193 195 200 207 208 205 201 197 196 193 188 187 189 189 189 189 187 185 184 185 187 189 191 197 206 210 209 205 206 213 222 230 239 246 247 247 249 252 254 257
186 189 193 196 201 210 216 212 205 200 200 197 189 186 188 187 187 188 187 185 184 184 186 188 193 202 209 213 215 214 212 215 223 232 241 247 247 245 248 251 254 257
185 188 194 199 202 212 218 215 211 208 206 204 195 188 187 187 187 188 187 186 184 184 186 188 195 207 213 215 219 222 223 226 230 235 242 247 247 246 247 249 252 255
190 191 197 204 207 215 218 216 214 213 211 209 203 194 190 189 189 188 188 186 182 180 182 184 194 208 213 213 218 225 230 233 233 234 239 244 246 247 248 250 252 255
194 194 200 207 209 214 218 217 216 215 212 210 208 202 198 196 194 189 184 183 180 177 178 181 192 204 205 206 218 226 231 235 234 234 237 241 244 246 247 250 252 253
193 195 201 208 208 211 216 218 217 214 212 212 212 209 204 202 201 191 179 176 176 173 176 181 193 201 199 204 221 228 233 237 236 235 238 240 243 245 247 250 251 253
191 196 202 206 208 210 215 219 218 214 213 212 210 209 204 199 203 200 183 174 174 174 180 184 188 192 194 204 222 228 232 236 235 237 240 242 243 246 248 250 254 257
190 197 201 203 207 211 214 219 218 214 212 205 199 207 207 199 204 209 193 181 180 181 181 180 183 196 208 219 222 220 227 234 234 240 246 246 244 245 246 249 255 260
189 194 199 203 206 209 212 215 213 211 209 198 193 206 212 204 204 209 201 190 188 188 186 189 202 212 212 210 208 206 218 233 235 244 250 248 243 244 247 252 259 264
187 193 197 201 205 208 211 212 211 210 206 197 193 203 212 209 201 202 205 197 189 188 193 198 203 196 177 175 185 196 220 239 237 242 249 250 246 248 251 257 264 263